• In Deutschland
  • Länderverzeichnis
  • Für 7 Tage
  • Wassertemperatur
  • Satellitenkarten
  • Wetterkarte
  • Widgets
  • user-avatar
    Anmelden

    Stündliche Wetter Remich

    Heute, 17 Januar, Mittwoch

    Zeit Temperatur Niederschläge Wind Luftdruck Luftfeuchtigkeit
    00:00 +1°C° 0,6 mm 8 m/S 723 mmHg 82%
    01:00 0°C° 0,4 mm 7 m/S 723 mmHg 80%
    02:00 0°C° 0,4 mm 7 m/S 723 mmHg 79%
    03:00 -1°C° 0,4 mm 7 m/S 723 mmHg 78%
    04:00 -1°C° 0,2 mm 7 m/S 724 mmHg 77%
    05:00 -1°C° 0,2 mm 7 m/S 725 mmHg 77%
    06:00 -2°C° 0,2 mm 7 m/S 725 mmHg 76%
    07:00 -2°C° 0 mm 7 m/S 727 mmHg 75%
    08:00 -2°C° 0 mm 7 m/S 728 mmHg 74%
    09:00 -2°C° 0 mm 7 m/S 729 mmHg 73%
    10:00 -2°C° 0 mm 8 m/S 729 mmHg 72%
    11:00 -1°C° 0 mm 8 m/S 730 mmHg 71%
    12:00 0°C° 0 mm 8 m/S 731 mmHg 70%
    13:00 0°C° 0,1 mm 8 m/S 731 mmHg 71%
    14:00 0°C° 0,1 mm 8 m/S 732 mmHg 71%
    15:00 0°C° 0,1 mm 8 m/S 732 mmHg 72%
    16:00 0°C° 0 mm 7 m/S 733 mmHg 74%
    17:00 -1°C° 0 mm 7 m/S 733 mmHg 77%
    18:00 -1°C° 0 mm 7 m/S 734 mmHg 80%
    19:00 -1°C° 0 mm 6 m/S 734 mmHg 81%
    20:00 -2°C° 0 mm 6 m/S 735 mmHg 82%
    21:00 -2°C° 0 mm 6 m/S 735 mmHg 84%
    22:00 -2°C° 0 mm 6 m/S 735 mmHg 85%
    23:00 -2°C° 0 mm 6 m/S 735 mmHg 87%

    Morgen, 18 Januar, Donnerstag

    Zeit Temperatur Niederschläge Wind Luftdruck Luftfeuchtigkeit
    00:00 -2°C° 0 mm 6 m/S 735 mmHg 89%
    01:00 -1°C° 0,5 mm 7 m/S 734 mmHg 89%
    02:00 -1°C° 0,5 mm 8 m/S 733 mmHg 89%
    03:00 0°C° 0,5 mm 9 m/S 732 mmHg 89%
    04:00 +1°C° 1,1 mm 9 m/S 731 mmHg 89%
    05:00 +1°C° 1,1 mm 10 m/S 730 mmHg 89%
    06:00 +2°C° 1,1 mm 11 m/S 728 mmHg 89%
    07:00 +3°C° 0,8 mm 11 m/S 728 mmHg 89%
    08:00 +3°C° 0,8 mm 11 m/S 728 mmHg 89%
    09:00 +5°C° 0,8 mm 10 m/S 728 mmHg 90%
    10:00 +6°C° 1,3 mm 10 m/S 728 mmHg 90%
    11:00 +6°C° 1,3 mm 10 m/S 727 mmHg 90%
    12:00 +6°C° 1,3 mm 10 m/S 727 mmHg 91%
    13:00 +6°C° 2 mm 10 m/S 727 mmHg 91%
    14:00 +6°C° 2 mm 9 m/S 727 mmHg 91%
    15:00 +6°C° 2 mm 8 m/S 727 mmHg 91%
    16:00 +6°C° 1,3 mm 8 m/S 727 mmHg 91%
    17:00 +6°C° 1,3 mm 7 m/S 726 mmHg 90%
    18:00 +6°C° 1,3 mm 7 m/S 726 mmHg 89%
    19:00 +5°C° 0,3 mm 7 m/S 727 mmHg 88%
    20:00 +5°C° 0,3 mm 7 m/S 727 mmHg 87%
    21:00 +4°C° 0,3 mm 7 m/S 727 mmHg 86%
    22:00 +4°C° 0,1 mm 7 m/S 727 mmHg 85%
    23:00 +3°C° 0,1 mm 6 m/S 727 mmHg 85%

    übermorgen, 19 Januar, Freitag

    Zeit Temperatur Niederschläge Wind Luftdruck Luftfeuchtigkeit
    00:00 +2°C° 0,1 mm 6 m/S 728 mmHg 84%
    01:00 +2°C° 0 mm 6 m/S 728 mmHg 85%
    02:00 +1°C° 0 mm 5 m/S 729 mmHg 85%
    03:00 0°C° 0 mm 5 m/S 729 mmHg 86%
    04:00 0°C° 0 mm 4 m/S 730 mmHg 87%
    05:00 -1°C° 0 mm 4 m/S 730 mmHg 88%
    06:00 -1°C° 0 mm 4 m/S 731 mmHg 90%
    07:00 -1°C° 0 mm 4 m/S 731 mmHg 89%
    08:00 -1°C° 0 mm 4 m/S 731 mmHg 87%
    09:00 0°C° 0 mm 4 m/S 731 mmHg 86%
    10:00 0°C° 0,1 mm 4 m/S 731 mmHg 82%
    11:00 +1°C° 0,1 mm 5 m/S 731 mmHg 78%
    12:00 +2°C° 0,1 mm 5 m/S 731 mmHg 74%
    13:00 +2°C° 0,2 mm 5 m/S 731 mmHg 76%
    14:00 +1°C° 0,2 mm 4 m/S 731 mmHg 78%
    15:00 +1°C° 0,2 mm 4 m/S 731 mmHg 79%
    16:00 0°C° 0,1 mm 4 m/S 731 mmHg 82%
    17:00 +1°C° 0,1 mm 3 m/S 731 mmHg 86%
    18:00 0°C° 0,1 mm 3 m/S 731 mmHg 89%
    19:00 0°C° 0,1 mm 3 m/S 731 mmHg 90%
    20:00 0°C° 0,1 mm 3 m/S 731 mmHg 91%
    21:00 0°C° 0,1 mm 3 m/S 730 mmHg 92%
    22:00 0°C° 0,3 mm 3 m/S 730 mmHg 91%
    23:00 -2°C° 0,3 mm 4 m/S 730 mmHg 91%

    20 Januar, Samstag

    Zeit Temperatur Niederschläge Wind Luftdruck Luftfeuchtigkeit
    00:00 -2°C° 0,3 mm 4 m/S 730 mmHg 90%
    01:00 -2°C° 0 mm 4 m/S 731 mmHg 90%
    02:00 -2°C° 0 mm 3 m/S 731 mmHg 91%
    03:00 -4°C° 0 mm 3 m/S 731 mmHg 92%
    04:00 -4°C° 0 mm 3 m/S 731 mmHg 92%
    05:00 -4°C° 0 mm 3 m/S 732 mmHg 93%
    06:00 -5°C° 0 mm 3 m/S 732 mmHg 94%
    07:00 -4°C° 0 mm 3 m/S 732 mmHg 92%
    08:00 -3°C° 0 mm 4 m/S 733 mmHg 90%
    09:00 -3°C° 0 mm 4 m/S 733 mmHg 88%
    10:00 -2°C° 0 mm 4 m/S 733 mmHg 86%
    11:00 -1°C° 0 mm 5 m/S 733 mmHg 84%
    12:00 0°C° 0 mm 5 m/S 733 mmHg 82%
    13:00 0°C° 0 mm 4 m/S 733 mmHg 82%
    14:00 0°C° 0 mm 4 m/S 733 mmHg 81%
    15:00 +1°C° 0 mm 3 m/S 733 mmHg 81%
    16:00 0°C° 0 mm 3 m/S 733 mmHg 85%
    17:00 -1°C° 0 mm 3 m/S 733 mmHg 88%
    18:00 -2°C° 0 mm 2 m/S 734 mmHg 92%
    19:00 -2°C° 0 mm 2 m/S 734 mmHg 93%
    20:00 -2°C° 0 mm 2 m/S 734 mmHg 94%
    21:00 -2°C° 0 mm 2 m/S 735 mmHg 95%
    22:00 -3°C° 0 mm 2 m/S 735 mmHg 95%
    23:00 -3°C° 0 mm 2 m/S 735 mmHg 95%

    21 Januar, Sonntag

    Zeit Temperatur Niederschläge Wind Luftdruck Luftfeuchtigkeit
    00:00 -3°C° 0 mm 2 m/S 735 mmHg 96%
    01:00 -3°C° 0 mm 2 m/S 735 mmHg 96%
    02:00 -2°C° 0 mm 2 m/S 735 mmHg 96%
    03:00 -2°C° 0 mm 2 m/S 735 mmHg 96%
    04:00 -2°C° 0 mm 2 m/S 735 mmHg 95%
    05:00 -2°C° 0 mm 2 m/S 735 mmHg 95%
    06:00 -2°C° 0 mm 2 m/S 736 mmHg 95%
    07:00 -2°C° 0 mm 2 m/S 736 mmHg 94%
    08:00 -1°C° 0 mm 2 m/S 736 mmHg 93%
    09:00 -1°C° 0 mm 2 m/S 736 mmHg 92%
    10:00 +1°C° 0 mm 2 m/S 736 mmHg 91%
    11:00 +1°C° 0 mm 2 m/S 737 mmHg 89%
    12:00 +2°C° 0 mm 2 m/S 737 mmHg 87%
    13:00 +2°C° 0 mm 2 m/S 737 mmHg 87%
    14:00 +2°C° 0 mm 2 m/S 737 mmHg 88%
    15:00 +3°C° 0 mm 1 m/S 737 mmHg 88%
    16:00 +1°C° 0 mm 2 m/S 737 mmHg 90%
    17:00 +1°C° 0 mm 2 m/S 737 mmHg 91%
    18:00 -1°C° 0 mm 2 m/S 737 mmHg 93%
    19:00 -1°C° 0 mm 2 m/S 737 mmHg 93%
    20:00 -1°C° 0 mm 2 m/S 737 mmHg 93%
    21:00 -2°C° 0 mm 2 m/S 738 mmHg 93%
    22:00 -2°C° 0 mm 2 m/S 738 mmHg 92%
    23:00 -2°C° 0 mm 2 m/S 737 mmHg 91%

    22 Januar, Montag

    Zeit Temperatur Niederschläge Wind Luftdruck Luftfeuchtigkeit
    00:00 -2°C° 0 mm 2 m/S 737 mmHg 91%
    01:00 -2°C° 0 mm 2 m/S 737 mmHg 90%
    02:00 -2°C° 0 mm 2 m/S 737 mmHg 89%
    03:00 -2°C° 0 mm 2 m/S 737 mmHg 88%
    04:00 0°C° 0 mm 1 m/S 737 mmHg 88%
    05:00 +1°C° 0 mm 1 m/S 738 mmHg 88%
    06:00 +1°C° 0 mm 1 m/S 738 mmHg 87%
    07:00 +2°C° 0,1 mm 1 m/S 738 mmHg 88%
    08:00 +2°C° 0,1 mm 1 m/S 738 mmHg 89%
    09:00 +2°C° 0,1 mm 1 m/S 738 mmHg 91%
    10:00 +3°C° 0,1 mm 1 m/S 738 mmHg 92%
    11:00 +3°C° 0,1 mm 1 m/S 738 mmHg 93%
    12:00 +4°C° 0,1 mm 1 m/S 738 mmHg 94%
    13:00 +4°C° 0 mm 1 m/S 738 mmHg 95%
    14:00 +4°C° 0 mm 1 m/S 738 mmHg 96%
    15:00 +5°C° 0 mm 1 m/S 737 mmHg 97%
    16:00 +5°C° 0,1 mm 1 m/S 737 mmHg 97%
    17:00 +4°C° 0,1 mm 1 m/S 738 mmHg 97%
    18:00 +4°C° 0,1 mm 1 m/S 738 mmHg 98%
    19:00 +4°C° 0 mm 1 m/S 738 mmHg 98%
    20:00 +4°C° 0 mm 1 m/S 738 mmHg 98%
    21:00 +4°C° 0 mm 1 m/S 738 mmHg 98%
    22:00 +5°C° 0 mm 1 m/S 738 mmHg 98%
    23:00 +5°C° 0 mm 1 m/S 738 mmHg 98%
    Mehr zeigen